Zurück zum Katalog

STARLINK-35967

AktivKommunikationVLEO
NORAD 66634·PAYLOAD·🇺🇸 United States

Gestartet Nov 23, 2025 von Vandenberg Space Force Base

Loading…

Nächste Überflüge (nächste 24 Stunden)

TLE

AktuellSource: CelesTrak SupGP

Epoche: Sep 14, 2026, 21:19 UTC

1 66634C 25271T   26257.88868056 -.00012852  00000+0 -37991-3 0  2571
2 66634  53.1597 336.0993 0001142  85.4758 314.1838 15.34382025    17

Verfolge STARLINK-35967 in Echtzeit mit AllMySat

Download on the App Store